sat.trackr.live / text

‹ back to catalog

STARLINK-35359

NORAD 65670 · 2025-211U

PAYLOAD ACTIVE UNKNOWN

§ Identity

Operator
Country
US
Launch date
2025-09-19
Launch site
AFWTR
Launch vehicle
Mass (kg)
RCS (m²)

Purposes: comms

External: N2YO · Heavens-Above · Gunter

§ Orbital elements

Epoch: 2026-05-25T02:27:18.504000Z

Period
95.64 min
Inclination
97.4478°
Eccentricity
0.0001997
Mean motion
15.05645892 rev/d
Perigee alt
548.1 km
Apogee alt
550.9 km
Semi-major
6,927.7 km
B*
-1.5430e-4
RAAN
189.0789°
Arg perigee
140.1588°
Mean anomaly
219.9786°
Rev number
3,854

§ Raw data

STARLINK-353591 65670U 25211U   26145.10229750 -.00002284  00000+0 -15430-3 0  99922 65670  97.4478 189.0789 0001997 140.1588 219.9786 15.05645892 38547

JSON: /api/v1/satellites/65670 · /tle

For live sub-satellite position, see the globe view (requires WebGL).

§ Visibility from observer

Set your observer location to see the next 7 days of passes ≥ 10°. The values pass through the URL so the page stays shareable.

No JS? Fill the form by hand. The geolocation button needs JavaScript.